This is the latest recevied weather packets stored in our database for station/object ZB2YN-13. If no packets are shown the sender has not sent any weather packets the latest 10 day(s).
| Time | Temp. | Humidity | Pressure | Rain* | Wind** | Luminosity | Snow |
|---|---|---|---|---|---|---|---|
| 1777910406 | 21.67° C | 41% | 1007.3 hPa | 0 mm | - | - | - |
| 1777906806 | 21.67° C | 46% | 1007.5 hPa | 0 mm | - | - | - |
| 1777903206 | 22.22° C | 47% | 1007.8 hPa | 0 mm | - | - | - |
| 1777899605 | 22.22° C | 54% | 1007.9 hPa | 0 mm | - | - | - |
| 1777896005 | 21.67° C | 56% | 1008.1 hPa | 0 mm | - | - | - |
| 1777892406 | 20° C | 65% | 1008.5 hPa | 0 mm | - | - | - |
| 1777888806 | 20.56° C | 62% | 1008.4 hPa | 0 mm | - | - | - |
| 1777885205 | 18.89° C | 70% | 1008.6 hPa | 0 mm | - | - | - |
| 1777881605 | 17.78° C | 79% | 1008 hPa | 0 mm | - | - | - |
| 1777878005 | 16.67° C | 84% | 1007.8 hPa | 0 mm | - | - | - |
| 1777874406 | 16.67° C | 84% | 1007.2 hPa | 0 mm | - | - | - |
| 1777870806 | 16.67° C | 83% | 1006.6 hPa | 0 mm | - | - | - |
| 1777867205 | 16.67° C | 82% | 1006.5 hPa | 0 mm | - | - | - |
| 1777863605 | 16.67° C | 80% | 1006.7 hPa | 0 mm | - | - | - |
| 1777860005 | 16.67° C | 81% | 1006.8 hPa | 0 mm | - | - | - |
| 1777856406 | 16.67° C | 80% | 1007.3 hPa | 0 mm | - | - | - |
| 1777852805 | 16.67° C | 81% | 1007.6 hPa | 0 mm | - | - | - |
| 1777849205 | 17.22° C | 80% | 1008 hPa | 0 mm | - | - | - |
| 1777845605 | 17.78° C | 80% | 1008 hPa | 0 mm | - | - | - |
| 1777842005 | 18.33° C | 79% | 1007.3 hPa | 0 mm | - | - | - |
| 1777838406 | 19.44° C | 76% | 1006.4 hPa | 0 mm | - | - | - |
| 1777834805 | 20.56° C | 72% | 1005.9 hPa | 0 mm | - | - | - |
| 1777831205 | 22.22° C | 62% | 1005.4 hPa | 0 mm | - | - | - |
| 1777827605 | 23.33° C | 58% | 1005.6 hPa | 0 mm | - | - | - |
| 1777824005 | 24.44° C | 52% | 1005.7 hPa | 0 mm | - | - | - |
* Rain latest hour (hover to see other rain measurements)
** Current wind speed in m/s (hover to see current wind gust speed)